When you browse on this site, cookies collect data to enhance your experience and personalize the content and advertising you see.
Visit our Privacy Policy to learn more. By continuing to use the site, you agree to this use of cookies and data.
  • en France
  • Liste des pays
  • À 7 jours
  • Température de l'eau
  • Carte météo
  • Widgets météo
  • user-avatar
    Se connecter

    Météo par heure à Bukavu

    Ce jour, 21 Août, Mercredi

    Heure Température Précipitation Vent Pression Humidité
    00:00 +19°C° 0.3 mm 0 m/s 689 mmHg 97%
    01:00 +19°C° 0.3 mm 0 m/s 689 mmHg 98%
    02:00 +19°C° 0.3 mm 0 m/s 688 mmHg 98%
    03:00 +18°C° 0 mm 0 m/s 689 mmHg 98%
    04:00 +18°C° 0 mm 0 m/s 689 mmHg 98%
    05:00 +18°C° 0 mm 0 m/s 689 mmHg 98%
    06:00 +19°C° 0 mm 0 m/s 689 mmHg 96%
    07:00 +20°C° 0 mm 0 m/s 690 mmHg 94%
    08:00 +21°C° 0 mm 0 m/s 690 mmHg 92%
    09:00 +24°C° 0 mm 0 m/s 690 mmHg 81%
    10:00 +26°C° 0 mm 0 m/s 691 mmHg 71%
    11:00 +28°C° 0 mm 0 m/s 691 mmHg 60%
    12:00 +28°C° 0.9 mm 0 m/s 690 mmHg 64%
    13:00 +30°C° 0.9 mm 1 m/s 689 mmHg 68%
    14:00 +29°C° 0.9 mm 1 m/s 688 mmHg 72%
    15:00 +29°C° 0.6 mm 1 m/s 688 mmHg 75%
    16:00 +28°C° 0.6 mm 1 m/s 687 mmHg 78%
    17:00 +27°C° 0.6 mm 1 m/s 687 mmHg 81%
    18:00 +25°C° 0.5 mm 1 m/s 687 mmHg 86%
    19:00 +23°C° 0.5 mm 1 m/s 688 mmHg 92%
    20:00 +19°C° 0.5 mm 0 m/s 688 mmHg 97%
    21:00 +19°C° 0 mm 0 m/s 688 mmHg 97%
    22:00 +19°C° 0 mm 0 m/s 689 mmHg 97%
    23:00 +19°C° 0 mm 0 m/s 689 mmHg 97%

    Demain, 22 Août, Jeudi

    Heure Température Précipitation Vent Pression Humidité
    00:00 +19°C° 0 mm 0 m/s 689 mmHg 97%
    01:00 +19°C° 0 mm 0 m/s 688 mmHg 97%
    02:00 +19°C° 0 mm 0 m/s 688 mmHg 98%
    03:00 +19°C° 0 mm 0 m/s 688 mmHg 98%
    04:00 +18°C° 0 mm 0 m/s 688 mmHg 98%
    05:00 +18°C° 0 mm 0 m/s 688 mmHg 97%
    06:00 +19°C° 0 mm 0 m/s 689 mmHg 96%
    07:00 +20°C° 0 mm 0 m/s 689 mmHg 94%
    08:00 +21°C° 0 mm 0 m/s 690 mmHg 92%
    09:00 +23°C° 0 mm 0 m/s 690 mmHg 82%
    10:00 +25°C° 0 mm 0 m/s 690 mmHg 71%
    11:00 +28°C° 0 mm 0 m/s 691 mmHg 60%
    12:00 +28°C° 0.1 mm 0 m/s 690 mmHg 56%
    13:00 +31°C° 0.1 mm 1 m/s 689 mmHg 53%
    14:00 +32°C° 0.1 mm 1 m/s 688 mmHg 50%
    15:00 +30°C° 0.5 mm 1 m/s 688 mmHg 58%
    16:00 +29°C° 0.5 mm 1 m/s 687 mmHg 67%
    17:00 +27°C° 0.5 mm 1 m/s 687 mmHg 76%
    18:00 +25°C° 0.5 mm 1 m/s 687 mmHg 83%
    19:00 +23°C° 0.5 mm 1 m/s 688 mmHg 90%
    20:00 +20°C° 0.5 mm 0 m/s 688 mmHg 97%
    21:00 +19°C° 0 mm 0 m/s 688 mmHg 97%
    22:00 +19°C° 0 mm 0 m/s 688 mmHg 97%
    23:00 +19°C° 0 mm 0 m/s 689 mmHg 98%

    Après-demain, 23 Août, Vendredi

    Heure Température Précipitation Vent Pression Humidité
    00:00 +19°C° 0.3 mm 0 m/s 688 mmHg 98%
    01:00 +19°C° 0.3 mm 0 m/s 688 mmHg 98%
    02:00 +18°C° 0.3 mm 0 m/s 688 mmHg 98%
    03:00 +18°C° 0.2 mm 0 m/s 688 mmHg 98%
    04:00 +18°C° 0.2 mm 0 m/s 688 mmHg 98%
    05:00 +18°C° 0.2 mm 0 m/s 688 mmHg 98%
    06:00 +19°C° 0.3 mm 0 m/s 689 mmHg 97%
    07:00 +19°C° 0.3 mm 0 m/s 690 mmHg 96%
    08:00 +20°C° 0.3 mm 0 m/s 690 mmHg 95%
    09:00 +20°C° 0.3 mm 0 m/s 690 mmHg 95%
    10:00 +21°C° 0.3 mm 0 m/s 690 mmHg 95%
    11:00 +21°C° 0.3 mm 0 m/s 690 mmHg 95%
    12:00 +22°C° 0.7 mm 0 m/s 689 mmHg 91%
    13:00 +24°C° 0.7 mm 0 m/s 689 mmHg 87%
    14:00 +25°C° 0.7 mm 0 m/s 689 mmHg 83%
    15:00 +25°C° 0.8 mm 0 m/s 688 mmHg 83%
    16:00 +25°C° 0.8 mm 0 m/s 688 mmHg 83%
    17:00 +24°C° 0.8 mm 0 m/s 688 mmHg 84%
    18:00 +23°C° 0.1 mm 0 m/s 688 mmHg 87%
    19:00 +21°C° 0.1 mm 0 m/s 688 mmHg 91%
    20:00 +20°C° 0.1 mm 0 m/s 689 mmHg 95%
    21:00 +19°C° 0.2 mm 0 m/s 689 mmHg 95%
    22:00 +19°C° 0.2 mm 0 m/s 689 mmHg 96%
    23:00 +19°C° 0.2 mm 0 m/s 689 mmHg 96%

    24 Août, Samedi

    Heure Température Précipitation Vent Pression Humidité
    00:00 +19°C° 0.1 mm 0 m/s 689 mmHg 97%
    01:00 +18°C° 0.1 mm 0 m/s 689 mmHg 97%
    02:00 +18°C° 0.1 mm 0 m/s 688 mmHg 97%
    03:00 +18°C° 0 mm 0 m/s 689 mmHg 98%
    04:00 +18°C° 0 mm 0 m/s 689 mmHg 98%
    05:00 +18°C° 0 mm 0 m/s 689 mmHg 99%
    06:00 +19°C° 0 mm 0 m/s 690 mmHg 97%
    07:00 +20°C° 0 mm 0 m/s 690 mmHg 95%
    08:00 +20°C° 0 mm 0 m/s 691 mmHg 93%
    09:00 +22°C° 0.5 mm 0 m/s 691 mmHg 89%
    10:00 +25°C° 0.5 mm 1 m/s 691 mmHg 85%
    11:00 +26°C° 0.5 mm 1 m/s 690 mmHg 82%
    12:00 +26°C° 1.1 mm 1 m/s 690 mmHg 82%
    13:00 +27°C° 1.1 mm 1 m/s 689 mmHg 82%
    14:00 +27°C° 1.1 mm 1 m/s 688 mmHg 83%
    15:00 +26°C° 1.2 mm 1 m/s 688 mmHg 87%
    16:00 +23°C° 1.2 mm 0 m/s 688 mmHg 90%
    17:00 +22°C° 1.2 mm 0 m/s 687 mmHg 94%
    18:00 +21°C° 0.7 mm 0 m/s 688 mmHg 95%
    19:00 +21°C° 0.7 mm 0 m/s 689 mmHg 96%
    20:00 +22°C° 0.7 mm 1 m/s 689 mmHg 96%
    21:00 +21°C° 0.3 mm 1 m/s 690 mmHg 97%
    22:00 +21°C° 0.3 mm 1 m/s 690 mmHg 98%
    23:00 +19°C° 0.3 mm 0 m/s 690 mmHg 98%

    25 Août, Dimanche

    Heure Température Précipitation Vent Pression Humidité
    00:00 +19°C° 0.6 mm 0 m/s 690 mmHg 99%
    01:00 +18°C° 0.6 mm 0 m/s 689 mmHg 99%
    02:00 +18°C° 0.6 mm 0 m/s 689 mmHg 99%
    03:00 +18°C° 0.6 mm 0 m/s 689 mmHg 99%
    04:00 +18°C° 0.6 mm 0 m/s 689 mmHg 99%
    05:00 +18°C° 0.6 mm 0 m/s 689 mmHg 99%
    06:00 +19°C° 0.7 mm 0 m/s 690 mmHg 98%
    07:00 +19°C° 0.7 mm 0 m/s 691 mmHg 97%
    08:00 +20°C° 0.7 mm 0 m/s 691 mmHg 97%
    09:00 +20°C° 0.8 mm 0 m/s 691 mmHg 96%
    10:00 +21°C° 0.8 mm 0 m/s 691 mmHg 96%
    11:00 +23°C° 0.8 mm 1 m/s 691 mmHg 95%
    12:00 +24°C° 1.5 mm 1 m/s 690 mmHg 94%
    13:00 +24°C° 1.5 mm 1 m/s 690 mmHg 92%
    14:00 +25°C° 1.5 mm 1 m/s 689 mmHg 91%
    15:00 +25°C° 1.4 mm 1 m/s 689 mmHg 92%
    16:00 +24°C° 1.4 mm 1 m/s 689 mmHg 93%
    17:00 +24°C° 1.4 mm 1 m/s 688 mmHg 94%
    18:00 +23°C° 0.4 mm 1 m/s 689 mmHg 96%
    19:00 +22°C° 0.4 mm 1 m/s 689 mmHg 97%
    20:00 +21°C° 0.4 mm 1 m/s 689 mmHg 98%
    21:00 +20°C° 0.4 mm 1 m/s 690 mmHg 99%
    22:00 +20°C° 0.4 mm 1 m/s 690 mmHg 99%
    23:00 +18°C° 0.4 mm 0 m/s 690 mmHg 99%

    26 Août, Lundi

    Heure Température Précipitation Vent Pression Humidité
    00:00 +18°C° 0.7 mm 0 m/s 690 mmHg 99%
    01:00 +18°C° 0.7 mm 0 m/s 690 mmHg 99%
    02:00 +18°C° 0.7 mm 0 m/s 689 mmHg 99%
    03:00 +20°C° 1.8 mm 1 m/s 689 mmHg 99%
    04:00 +20°C° 1.8 mm 1 m/s 690 mmHg 99%
    05:00 +20°C° 1.8 mm 1 m/s 690 mmHg 99%
    06:00 +20°C° 5 mm 1 m/s 690 mmHg 99%
    07:00 +20°C° 5 mm 1 m/s 691 mmHg 99%
    08:00 +20°C° 5 mm 1 m/s 692 mmHg 99%
    09:00 +20°C° 1.1 mm 1 m/s 692 mmHg 99%
    10:00 +20°C° 1.1 mm 1 m/s 691 mmHg 99%
    11:00 +21°C° 1.1 mm 1 m/s 691 mmHg 98%
    12:00 +22°C° 0.2 mm 1 m/s 691 mmHg 91%
    13:00 +23°C° 0.2 mm 2 m/s 691 mmHg 83%
    14:00 +25°C° 0.2 mm 2 m/s 690 mmHg 76%
    15:00 +25°C° 0.1 mm 1 m/s 690 mmHg 77%
    16:00 +24°C° 0.1 mm 1 m/s 689 mmHg 78%
    17:00 +24°C° 0.1 mm 1 m/s 689 mmHg 79%
    18:00 +23°C° 0 mm 1 m/s 689 mmHg 84%
    19:00 +22°C° 0 mm 1 m/s 690 mmHg 89%
    20:00 +19°C° 0 mm 0 m/s 690 mmHg 94%
    21:00 +19°C° 0.1 mm 0 m/s 690 mmHg 94%
    22:00 +18°C° 0.1 mm 0 m/s 690 mmHg 95%
    23:00 +18°C° 0.1 mm 0 m/s 691 mmHg 95%
    Voir plus